Tianqi Xingzuo 1-31

operational
NORAD ID: 62366 Int'l Des: 2024-245 Owner: GUOG Country: CN Constellation: tianqi
LEOCIRCULAR

About Tianqi Xingzuo 1-31

Description loading...

Live Position

Loading 3D Globe...

Upcoming Passes

Altitude History

Altitude vs Time

uPlot chart will show altitude changes over time

Two-Line Element Set

1 62366U 24245B 26061.11445498 .00000076 00000-0 14032-3 0 9997
2 62366 44.9799 78.1546 0006320 244.2207 115.7973 13.99146621 61338
Epoch: Mar 2, 2026 • Age: 27 hours

Current Status

Altitude 903.3 km
Velocity 7.40 km/s
Sub-Earth Point -30.58°S, 160.99°W
Launch Date Dec 19, 2024
Age 1.2 years
Type other

Technical Details

Classification Payload
Mass 40.00 kg
Dry Mass 40.00 kg
Total Mass 40.00 kg
Length 0.50 m
Diameter 0.30 m
Span 0.50 m
Shape Box
Manufacturer ASES
Bus Type StarLightB
Phase Status In Orbit
Owner/State GUOG/CN

Large Constellations

Loading constellations...